Regional Weather Roundup
Issued by NWS

Home | Current Version | Previous Version | Graphics & Text | Print | Product List | Glossary On
Versions: 1 2 3 4 5 6 7 8 9 10 11 12 13 14 15 16 17 18 19 20 21 22 23 24 25 26 27 28 29 30 31 32 33 34 35 36 37 38 39 40 41 42 43 44 45 46 47 48 49 50
000
ASUS45 KSLC 221110
RWRUT

UTAH REGIONAL WEATHER ROUNDUP
NATIONAL WEATHER SERVICE SALT LAKE CITY UT
400 AM MST SUN JAN 22 2017

UTZ001>011-023>025-221200-

NORTHERN UTAH

CITY           SKY/WX    TMP DP  RH WIND       PRES   REMARKS
BRIGHAM CITY     N/A     24  21  88 N6        29.98F WCI  17
HILL AFB       MOCLDY    25  20  81 SE7       29.96F WCI  17
LOGAN          CLOUDY    24  23  96 CALM      29.97R
OGDEN          CLOUDY    26  22  84 S13       29.96S WCI  15
SALT LAKE CITY MOCLDY    29  24  82 SE9       29.97F WCI  20
TOOELE VALLEY  PTCLDY    28  21  74 S16       29.96S WCI  17
WENDOVER       PTCLDY    19  16  86 NE10      29.93F WCI   8
HEBER CITY     FLURRIES  18  14  86 CALM      29.98S
WEST JORDAN    PTCLDY    28  28  99 S13       29.98F WCI  17

$$

UTZ011>015-024>027-221200-

CENTRAL/NORTHEAST UTAH

CITY           SKY/WX    TMP DP  RH WIND       PRES   REMARKS
PROVO AIRPORT  CLOUDY    22  20  92 VRB3      30.02F
MOAB/CANYONLAN CLEAR     28  25  88 CALM      30.01R
DELTA          CLOUDY    27  19  74 S7        29.98F WCI  19
PRICE          PTCLDY    10   6  84 NE5       29.97S WCI   2
ROOSEVELT      CLOUDY    14  10  85 S3        30.02S
VERNAL         MOCLDY    15  13  91 MISG      30.00R

$$

UTZ013>016-019>022-027-221200-

SOUTHERN UTAH

CITY           SKY/WX    TMP DP  RH WIND       PRES   REMARKS
BRYCE CANYON   MOCLDY     4   0  83 SW5       29.97F WCI  -5
CEDAR CITY     MOCLDY    20  15  81 NE3       29.98S
MILFORD        CLOUDY    29  22  75 SW14      29.96F WCI  18
ST GEORGE      MOSUNNY   36  28  75 CALM      30.10R
HANKSVILLE     PTCLDY    25  21  86 MISG      30.05R
BLANDING       PTCLDY    16  14  93 N10       30.08S WCI   4

$$

REGIONAL REPORTS     COLORADO/ARIZONA

CITY           SKY/WX    TMP DP  RH WIND       PRES   REMARKS
CRAIG, CO      CLOUDY    22  16  78 W3        29.97R
GRAND JUNCTION CLEAR     25  24  96 CALM      30.00S
RIFLE, CO      CLOUDY    31  28  89 W7        29.99R WCI  24
MONTROSE, CO   CLEAR     26  24  92 SE8       30.03R WCI  18
CORTEZ, CO     CLOUDY    10   9  95 NE6       30.03R WCI   0
COLORADO CITY    N/A     28  27  93 SE6       30.09R WCI  22
PAGE, AZ       MOCLDY    32  23  69 SE6       30.02F WCI  26
GRAND CANYON   CLOUDY     6   2  83 CALM      30.08R
KINGMAN, AZ    CLOUDY    39  24  55 SE8       30.08S WCI  33
FLAGSTAFF, AZ  CLOUDY    21  20  96 SW3       30.07R

$$

REGIONAL REPORTS    NEVADA/IDAHO/WYOMING

CITY           SKY/WX    TMP DP  RH WIND       PRES   REMARKS
LAS VEGAS, NV  CLOUDY    49  31  49 S6        30.02S
ELY, NY        CLOUDY    25  19  78 SW20      29.93R WCI  11
ELKO, NV       PTCLDY    29  17  61 SW9       29.83F WCI  20
POCATELLO, ID  CLOUDY    33  23  66 S10       29.91S WCI  25
BURLEY, ID     CLOUDY    33  23  66 S13       29.86F WCI  24
FORT BRIDGER,    N/A     21  19  93 SW12      29.95S WCI   9
EVANSTON, WY   CLOUDY    19  15  84 SW9       29.93F WCI   8
ROCK SPRINGS,  CLEAR     18  13  80 W18       29.93R WCI   2

$$



USA.gov is the U.S. government's official web portal to all federal, state and local government web resources and services.